SWR3WL LSZH-LEMG

Flight info

Callsign SWR3WL
Flight time N/A
Altitude 33000
Route VEBIT T50 ROTOS Z669 ULMES DCT VADAR DCT NINTU/N0454F350 DCT MEBAK DCT REPSI DCT LERGA DCT MINSO DCT NARAK DCT AGN/N0455F370 DCT MAQAB DCT TIVLI DCT ELSAP DCT ZAR DCT EXEMU DCT PISUS DCT EDIMU DCT ADUXO DCT NUSGO DCT OBIBO DCT NASOS DCT ANZAN DCT BLN
Aircraft A321/M-SDE3FGHIRWY/LB1

Departure

Time N/A
Airport Zürich Airport (LSZH)

Arrival

Time 2026-05-06 19:59
Airport Málaga-Costa del Sol Airport (LEMG)
Time Latitude Longitude Altitude Speed Heading
2026-05-06 19:30 38.55987 -3.43222 32942 ft 409 kts 205°
2026-05-06 19:30 38.50650 -3.45752 32942 ft 409 kts 205°
2026-05-06 19:31 38.45322 -3.48279 32943 ft 409 kts 205°
2026-05-06 19:31 38.37338 -3.52069 32939 ft 408 kts 205°
2026-05-06 19:32 38.32012 -3.54581 32939 ft 408 kts 205°
2026-05-06 19:32 38.26683 -3.57085 32938 ft 408 kts 205°
2026-05-06 19:33 38.21408 -3.59570 32937 ft 407 kts 205°
2026-05-06 19:33 38.16365 -3.62659 32932 ft 398 kts 219°
2026-05-06 19:34 38.12522 -3.67600 32932 ft 393 kts 236°
2026-05-06 19:34 38.09448 -3.73346 32929 ft 393 kts 236°
2026-05-06 19:35 38.06365 -3.79076 32929 ft 393 kts 236°
2026-05-06 19:35 38.03288 -3.84793 32880 ft 391 kts 236°
2026-05-06 19:36 38.00220 -3.90494 32870 ft 392 kts 236°
2026-05-06 19:36 37.97144 -3.96197 32868 ft 392 kts 236°
2026-05-06 19:37 37.94069 -4.01892 32268 ft 390 kts 236°
2026-05-06 19:37 37.92533 -4.04732 31400 ft 392 kts 236°
2026-05-06 19:37 37.91509 -4.06623 30778 ft 395 kts 236°
2026-05-06 19:38 37.89413 -4.10487 29465 ft 401 kts 236°
2026-05-06 19:38 37.87825 -4.13416 28436 ft 406 kts 236°
2026-05-06 19:38 37.86215 -4.16384 27348 ft 412 kts 236°
2026-05-06 19:38 37.84579 -4.19394 26240 ft 417 kts 236°
2026-05-06 19:39 37.82922 -4.22437 25075 ft 423 kts 235°
2026-05-06 19:39 37.81244 -4.25516 24410 ft 427 kts 235°
2026-05-06 19:39 37.79559 -4.28608 24157 ft 427 kts 235°
2026-05-06 19:39 37.77878 -4.31695 23907 ft 426 kts 235°
2026-05-06 19:40 37.76196 -4.34776 23655 ft 426 kts 235°
2026-05-06 19:40 37.74537 -4.37813 23404 ft 412 kts 235°
2026-05-06 19:40 37.72937 -4.40739 23038 ft 399 kts 235°
2026-05-06 19:40 37.71371 -4.43601 22429 ft 394 kts 235°
2026-05-06 19:41 37.69834 -4.46405 21826 ft 388 kts 235°
2026-05-06 19:41 37.68308 -4.49188 21231 ft 383 kts 235°
2026-05-06 19:41 37.66824 -4.51888 20620 ft 363 kts 236°
2026-05-06 19:41 37.65446 -4.54392 20036 ft 341 kts 236°
2026-05-06 19:42 37.64114 -4.56773 19433 ft 324 kts 232°
2026-05-06 19:42 37.62570 -4.58747 18839 ft 311 kts 219°
2026-05-06 19:42 37.60764 -4.60217 18234 ft 308 kts 211°
2026-05-06 19:42 37.58899 -4.61542 17626 ft 307 kts 211°
2026-05-06 19:43 37.57042 -4.62866 17032 ft 306 kts 211°
2026-05-06 19:43 37.55198 -4.64183 16426 ft 304 kts 211°
2026-05-06 19:43 37.53356 -4.65479 15818 ft 302 kts 207°
2026-05-06 19:43 37.51392 -4.66399 15222 ft 302 kts 195°
2026-05-06 19:44 37.49315 -4.66748 14618 ft 302 kts 182°
2026-05-06 19:44 37.47219 -4.66721 14016 ft 301 kts 181°
2026-05-06 19:44 37.45135 -4.66696 13412 ft 298 kts 181°
2026-05-06 19:44 37.43067 -4.66679 12811 ft 296 kts 181°
2026-05-06 19:45 37.40983 -4.66665 12217 ft 303 kts 180°
2026-05-06 19:45 37.38866 -4.66773 11620 ft 307 kts 189°
2026-05-06 19:45 37.36872 -4.67599 11341 ft 299 kts 208°
2026-05-06 19:45 37.35086 -4.68888 11093 ft 293 kts 210°
2026-05-06 19:46 37.33338 -4.70183 10835 ft 289 kts 211°
2026-05-06 19:46 37.31649 -4.71446 10585 ft 276 kts 211°
2026-05-06 19:46 37.30043 -4.72651 10331 ft 263 kts 211°
2026-05-06 19:46 37.28510 -4.73802 10088 ft 251 kts 211°
2026-05-06 19:47 37.27031 -4.74912 9981 ft 246 kts 211°
2026-05-06 19:47 37.25567 -4.76007 9990 ft 245 kts 211°
2026-05-06 19:47 37.24101 -4.77104 9997 ft 246 kts 211°
2026-05-06 19:47 37.22635 -4.78203 10002 ft 245 kts 211°
2026-05-06 19:48 37.21168 -4.79297 10004 ft 245 kts 209°
2026-05-06 19:48 37.20137 -4.79874 10006 ft 246 kts 198°
2026-05-06 19:48 37.18458 -4.80233 10006 ft 246 kts 181°
2026-05-06 19:48 37.16744 -4.80211 10000 ft 246 kts 180°
2026-05-06 19:49 37.15027 -4.80190 9997 ft 246 kts 180°
2026-05-06 19:49 37.12756 -4.80164 10000 ft 247 kts 180°
2026-05-06 19:49 37.11041 -4.80144 10000 ft 247 kts 180°
2026-05-06 19:49 37.09326 -4.80125 10000 ft 246 kts 180°
2026-05-06 19:50 37.08166 -4.80113 10003 ft 247 kts 180°
2026-05-06 19:50 37.06451 -4.80092 10000 ft 246 kts 180°
2026-05-06 19:50 37.04716 -4.80073 9610 ft 252 kts 180°
2026-05-06 19:50 37.02978 -4.80056 9320 ft 250 kts 180°
2026-05-06 19:51 37.01232 -4.80039 8999 ft 248 kts 180°
2026-05-06 19:51 36.99496 -4.80023 8548 ft 250 kts 180°
2026-05-06 19:51 36.97803 -4.80004 8201 ft 245 kts 180°
2026-05-06 19:51 36.96111 -4.79982 7817 ft 242 kts 180°
2026-05-06 19:52 36.94434 -4.79961 7473 ft 240 kts 180°
2026-05-06 19:52 36.92782 -4.79747 7136 ft 239 kts 165°
2026-05-06 19:52 36.91209 -4.79078 6797 ft 238 kts 160°
2026-05-06 19:52 36.89643 -4.78385 6459 ft 241 kts 161°
2026-05-06 19:53 36.88060 -4.77695 6117 ft 242 kts 161°
2026-05-06 19:53 36.86511 -4.76947 5870 ft 238 kts 153°
2026-05-06 19:53 36.85041 -4.75975 5553 ft 237 kts 152°
2026-05-06 19:53 36.83589 -4.74995 5184 ft 239 kts 152°
2026-05-06 19:54 36.82150 -4.74023 5006 ft 233 kts 152°
2026-05-06 19:54 36.80736 -4.73067 4765 ft 230 kts 152°
2026-05-06 19:54 36.79331 -4.72118 4510 ft 228 kts 152°
2026-05-06 19:54 36.77975 -4.71145 4205 ft 228 kts 142°
2026-05-06 19:55 36.76972 -4.69612 3608 ft 229 kts 119°
2026-05-06 19:55 36.76246 -4.67863 3101 ft 223 kts 117°
2026-05-06 19:55 36.75560 -4.66189 2775 ft 211 kts 117°
2026-05-06 19:55 36.74897 -4.64599 2503 ft 202 kts 118°
2026-05-06 19:56 36.74275 -4.63108 2248 ft 184 kts 118°
2026-05-06 19:56 36.73706 -4.61750 2001 ft 171 kts 118°
2026-05-06 19:56 36.73165 -4.60459 1777 ft 165 kts 117°
2026-05-06 19:56 36.72638 -4.59202 1561 ft 162 kts 117°
2026-05-06 19:57 36.72126 -4.57981 1358 ft 159 kts 117°
2026-05-06 19:57 36.71640 -4.56824 1164 ft 143 kts 118°
2026-05-06 19:57 36.71192 -4.55754 970 ft 137 kts 117°
2026-05-06 19:57 36.70758 -4.54717 781 ft 134 kts 117°
2026-05-06 19:58 36.70330 -4.53698 594 ft 132 kts 117°
2026-05-06 19:58 36.69903 -4.52681 407 ft 133 kts 117°
2026-05-06 19:58 36.69471 -4.51654 264 ft 134 kts 116°
2026-05-06 19:58 36.69040 -4.50631 102 ft 133 kts 116°
2026-05-06 19:59 36.68632 -4.49656 47 ft 114 kts 117°
2026-05-06 19:59 36.68416 -4.49144 47 ft 28 kts 117°
2026-05-06 19:59 36.68333 -4.48996 44 ft 15 kts 133°
2026-05-06 19:59 36.68260 -4.48921 43 ft 14 kts 146°
2026-05-06 20:00 36.68183 -4.48863 40 ft 12 kts 159°
2026-05-06 20:00 36.68144 -4.48904 40 ft 7 kts 271°
2026-05-06 20:00 36.68168 -4.48990 40 ft 16 kts 295°
2026-05-06 20:00 36.68225 -4.49128 40 ft 18 kts 298°
2026-05-06 20:01 36.68276 -4.49250 41 ft 11 kts 293°
2026-05-06 20:01 36.68261 -4.49338 40 ft 11 kts 232°
2026-05-06 20:01 36.68208 -4.49400 39 ft 10 kts 222°
2026-05-06 20:01 36.68140 -4.49475 42 ft 18 kts 221°
2026-05-06 20:02 36.68047 -4.49578 42 ft 18 kts 221°
2026-05-06 20:02 36.67954 -4.49682 42 ft 18 kts 221°
2026-05-06 20:02 36.67866 -4.49778 42 ft 12 kts 221°
2026-05-06 20:02 36.67809 -4.49803 42 ft 8 kts 153°
2026-05-06 20:03 36.67755 -4.49737 42 ft 13 kts 131°
2026-05-06 20:03 36.67723 -4.49668 42 ft 8 kts 79°
2026-05-06 20:03 36.67756 -4.49623 41 ft 3 kts 41°
2026-05-06 20:03 36.67760 -4.49618 42 ft 0 kts 41°